This is the latest recevied weather packets stored in our database for station/object SP1BMW-13. If no packets are shown the sender has not sent any weather packets the latest 1 day(s).
| Time | Temp. | Humidity | Pressure | Rain* | Wind** | Luminosity | Snow |
|---|---|---|---|---|---|---|---|
| 1777985267 | 13.89° C | 86% | 1008.8 hPa | 0 mm | 0.45 m/s, 28° | 147 W/m² | - |
| 1777985207 | 13.89° C | 86% | 1008.8 hPa | 0 mm | 0.89 m/s, 345° | 152 W/m² | - |
| 1777985147 | 13.89° C | 86% | 1008.7 hPa | 0 mm | 0.89 m/s, 308° | 155 W/m² | - |
| 1777985087 | 14.44° C | 86% | 1008.7 hPa | 0 mm | 1.34 m/s, 336° | 157 W/m² | - |
| 1777985027 | 14.44° C | 87% | 1008.7 hPa | 0 mm | 0.45 m/s, 328° | 158 W/m² | - |
| 1777984967 | 13.89° C | 88% | 1008.7 hPa | 0 mm | 0 m/s | 156 W/m² | - |
| 1777984907 | 13.89° C | 88% | 1008.9 hPa | 0 mm | 0 m/s | 152 W/m² | - |
| 1777984847 | 13.89° C | 88% | 1008.8 hPa | 0 mm | 0 m/s | 151 W/m² | - |
| 1777984787 | 13.89° C | 87% | 1008.9 hPa | 0 mm | 0 m/s | 152 W/m² | - |
| 1777984727 | 13.89° C | 87% | 1008.8 hPa | 0 mm | 0.45 m/s, 353° | 150 W/m² | - |
| 1777984667 | 13.89° C | 87% | 1009 hPa | 0 mm | 0.89 m/s, 311° | 144 W/m² | - |
| 1777984607 | 13.89° C | 87% | 1008.9 hPa | 0 mm | 0 m/s | 132 W/m² | - |
| 1777984546 | 13.89° C | 86% | 1009 hPa | 0 mm | 0.45 m/s, 39° | 123 W/m² | - |
| 1777984487 | 13.89° C | 87% | 1008.9 hPa | 0 mm | 0.45 m/s, 47° | 122 W/m² | - |
| 1777984427 | 13.89° C | 87% | 1009.2 hPa | 0 mm | 0.45 m/s, 42° | 125 W/m² | - |
| 1777984368 | 13.89° C | 87% | 1008.8 hPa | 0 mm | 0 m/s | 133 W/m² | - |
| 1777984308 | 13.89° C | 87% | 1009 hPa | 0 mm | 0.45 m/s, 41° | 139 W/m² | - |
| 1777984246 | 13.89° C | 86% | 1009.1 hPa | 0 mm | 0.45 m/s, 30° | 135 W/m² | - |
| 1777984187 | 13.89° C | 86% | 1009 hPa | 0 mm | 0 m/s | 125 W/m² | - |
| 1777984128 | 13.89° C | 86% | 1009 hPa | 0 mm | 0 m/s | 109 W/m² | - |
| 1777984066 | 13.89° C | 87% | 1008.9 hPa | 0 mm | 0.45 m/s, 37° | 96 W/m² | - |
| 1777984008 | 13.89° C | 86% | 1008.9 hPa | 0 mm | 0.45 m/s, 28° | 87 W/m² | - |
| 1777983947 | 13.89° C | 86% | 1009 hPa | 0 mm | 0.89 m/s, 342° | 82 W/m² | - |
| 1777983887 | 13.89° C | 87% | 1009.1 hPa | 0 mm | 0 m/s | 77 W/m² | - |
| 1777983827 | 13.89° C | 86% | 1009.2 hPa | 0 mm | 1.34 m/s, 15° | 77 W/m² | - |
* Rain latest hour (hover to see other rain measurements)
** Current wind speed in m/s (hover to see current wind gust speed)